THOR ABLESTAR DEB, 5826

Orbit data source: Space-Track

THOR ABLESTAR DEB, 5826 is space debris in LEO originally from a launch on Thu, 29 Jun 1961 UTC launched from the Air Force Eastern Test Range (AFETR). Debris objects in space refer to the collection of defunct objects orbiting the Earth. Examples of debris include non-operational satellites, rocket bodies, and fragments generated from explosions, collisions, or faulty payload assembly.

Loading next visibility...
Identifier
5826, 1961-015KE
Orbit
LEO
Country
Flag of USUS
Related business
Manufacturer
Unknown
Mission
Spacecraft
Bus & Motor
Unknown
Mass
Unknown
Launch date (UTC)
1961-06-29 (65 years ago)
Launch vehicle
Unknown
Launch site
Air Force Eastern Test Range (AFETR)
Object type
Payload
Rocket body
Debris
Shape & HBR
Unknown shape, 0.1 m
Radar Cross Section
Small (<0.1 m²)

Expand to show TLE details & history
Last TLE update: 19 hours ago

TLE from 19 hours ago
0 THOR ABLESTAR DEB
1 05826U 61015KE  26127.80530374  .00000601  00000-0  46917-3 0  9999
2 05826  66.6804  53.3361 0082061 286.7399  72.4689 13.97533141265089
Epoch: 2026-05-07T19:19Z
TLE epoch observation values (Epoch: 2026-05-07T19:19:38.243Z)
Latitude
-0.00001°
Longitude
-102.21942°
Altitude
886.873 km
Speed
7.418 km/s
True Right ascension
03h 33m 20s
True Declination
0° 00' 00"
Sunlit
Object was in daylight at epoch
Visualization orbit readout
Latitude
Unknown
Longitude
Unknown
Altitude
Unknown
Speed
Unknown
Apparent Right ascension
Unknown
Apparent Declination
Unknown
Sunlit
N/A
Visualization observer readout
Local Sidereal Time
21:58:35
Azimuth
Unknown
Elevation
Unknown
Doppler factor
Unknown
Orbital elements
Apogee altitude
960.483 km
Perigee altitude
841.021 km
Semi-major axis
7,278.889 km
Eccentricity
0.00821
Inclination
66.6804°
RAAN
53.3361°
Arg. of periapsis
286.7399°
True anomaly
73.36832°
Mean anomaly
72.4689°
Eccentric anomaly
72.91833°
Mean motion
3.49499 °/min
Orbital period
103 mins
BSTAR
0.00046917
Loading maneuver chart data...
Computing Atmospheric mass density...
Loading historical data...
Loading historical data...
Loading historical data...
Loading historical data...
Loading historical data...
Loading historical data...
Loading historical data...

Documentation

Showing up to 5 results
|